Flag for Germany Weather past 2 weeks in Frankfurt, Hesse, Germany

Now
25 °F

Sunny.


Feels Like: 11 °F
Forecast: 17 / 38 °F
Wind: 18 mph from Northeast

Location: Frankfurt-M-Flughafen Airport

Current Time: Dec 28, 2014 at 12:02:58 PM

Latest Report: Dec 28, 2014 at 11:20 AM


Visibility: 10 mi

Pressure: 30.12 "Hg

Humidity: 59%

Dew point: 12 °F

Location of FrankfurtLocation

Historic Weather in Frankfurt — Graph

°F

Frankfurt temperature yesterday

Maximum temperature yesterday: 34 °F (at 12:50 AM)
Minimum temperature yesterday: 30 °F (at 6:20 PM)
Average temperature yesterday: 32 °F

Past Weeks' High & Low Weather Summary

 TemperatureHumidityPressure
High57 °F (Dec 18, 7:50 PM)100% (Dec 13, 10:50 AM)30.48 "Hg (Dec 13, 10:50 AM)
Low23 °F (Dec 28, 9:20 AM)63% (Dec 28, 10:50 AM)29.42 "Hg (Dec 27, 2:50 PM)
Average42 °F87%30.06 "Hg
* Reported Dec 13 10:20 AM — Dec 28 10:50 AM, Frankfurt, Weather by CustomWeather, © 2014

Note: Actual official high and low records may vary slightly from our data, if they occured in-between our weather recording intervals... More about our weather records

Advertising

Frankfurt weather history for previous 24 hours

 ConditionsComfort  
Time TempWeatherWind HumidityBarometerVisibility
10:50 AM
Dec 28
23 °FPassing clouds.17 mph63%30.12 "HgN/A
10:20 AM23 °FSunny.21 mph68%30.09 "Hg10 mi
9:50 AM23 °FSunny.22 mph74%30.07 "Hg10 mi
9:20 AM23 °FScattered clouds.21 mph74%30.04 "HgN/A
8:50 AM25 °FScattered clouds.20 mph74%30.01 "HgN/A
8:20 AM25 °FPassing clouds.18 mph74%29.98 "HgN/A
7:50 AM25 °FPassing clouds.18 mph80%29.95 "HgN/A
7:20 AM27 °FPassing clouds.20 mph74%29.89 "HgN/A
6:50 AM27 °FPassing clouds.15 mph74%29.89 "HgN/A
6:20 AM27 °FPartly cloudy.16 mph80%29.86 "HgN/A
5:50 AM27 °FPartly cloudy.15 mph80%29.83 "HgN/A
5:20 AM27 °FPassing clouds.15 mph80%29.83 "HgN/A
4:20 AM27 °FLight snow. Passing clouds.16 mph86%29.77 "HgN/A
3:50 AM28 °FPassing clouds.17 mph80%29.74 "HgN/A
3:20 AM28 °FLight snow. Partly cloudy.16 mph80%29.71 "Hg4 mi
2:50 AM28 °FLight snow. Partly cloudy.17 mph80%29.71 "Hg4 mi
2:20 AM28 °FLight snow. Passing clouds.17 mph86%29.68 "Hg3 mi
1:50 AM28 °FLight snow. Partly cloudy.17 mph86%29.65 "Hg3 mi
1:20 AM28 °FLight snow. Partly cloudy.16 mph93%29.65 "Hg3 mi
12:50 AM28 °FLight snow. Passing clouds.18 mph93%29.62 "Hg3 mi
12:20 AM28 °FLight snow. Passing clouds.18 mph93%29.62 "Hg3 mi
11:50 PM
Dec 27
30 °FLight snow. Passing clouds.14 mph93%29.59 "HgN/A
11:20 PM30 °FLight snow. Passing clouds.20 mph93%29.59 "HgN/A
10:50 PM30 °FLight snow. Partly cloudy.20 mph93%29.56 "HgN/A
10:20 PM30 °FLight snow. Partly cloudy.16 mph93%29.56 "Hg4 mi
9:50 PM30 °FLight snow. Mostly cloudy.14 mph93%29.53 "Hg4 mi
9:20 PM30 °FLight snow. Mostly cloudy.17 mph93%29.50 "Hg4 mi
8:50 PM30 °FLight snow. Passing clouds.16 mph93%29.50 "Hg3 mi
8:20 PM30 °FLight snow. Mostly cloudy.13 mph93%29.47 "Hg3 mi
7:50 PM30 °FLight snow. Mostly cloudy.14 mph100%29.47 "Hg4 mi
7:20 PM30 °FLight snow. Mostly cloudy.14 mph100%29.47 "Hg5 mi
6:50 PM30 °FLight snow. Mostly cloudy.13 mph100%29.45 "Hg2 mi
6:20 PM30 °FLight snow. Low clouds.14 mph100%29.45 "Hg2 mi
5:50 PM32 °FLight snow. Low clouds.16 mph93%29.45 "Hg2 mi
5:20 PM32 °FLight snow. Low clouds.14 mph100%29.42 "Hg2 mi
4:50 PM32 °FLight snow. Mostly cloudy.15 mph100%29.42 "Hg2 mi
4:20 PM32 °FLight snow. Mostly cloudy.14 mph100%29.42 "Hg2 mi
3:50 PM32 °FSnow. Mostly cloudy.13 mph100%29.42 "Hg1 mi
3:20 PM32 °FLight snow. Mostly cloudy.13 mph100%29.42 "Hg2 mi
2:50 PM32 °FSnow. Mostly cloudy.12 mph100%29.42 "Hg1 mi
2:20 PM32 °FSnow. Mostly cloudy.12 mph100%29.45 "Hg1 mi
1:50 PM32 °FSnow. Mostly cloudy.12 mph100%29.45 "Hg1 mi
1:20 PM32 °FSnow. Mostly cloudy.14 mph100%29.45 "Hg1 mi
12:50 PM32 °FSnow. Cloudy.15 mph100%29.45 "Hg1 mi
12:20 PM32 °FSnow. Cloudy.14 mph100%29.47 "Hg1 mi
Weather by CustomWeather, © 2014

See weather overviewHow to use our weather pages